Showing default

KINEIS-5E, 62083

Orbit data source: Space-Track

KINEIS-5E, 62083 is a French payload satellite in SSO that was launched on Mon, 25 Nov 2024 UTC via an ELECTRON launch vehicle from the Rocket Lab Launch Complex (RLLC). Payload-class satellites include a variety of spacecraft equipped with specific instruments for various scientific and technological missions. These include communications satellites like Starlink; space stations such as the ISS; scientific satellites like the Hubble; Earth observation satellites from companies like Planet Labs, Umbra, and HawkEye 360; GPS; miniature CubeSats for education and research; and military/defense satellites.

Loading next visibility...
Identifier
62083, 2024-219C
Orbit
SSO
Country
Flag of FRFR
Related business
Manufacturer
KINEIS
Mission
Operational Commercial Communications
Bus & Motor
CUBESAT 16U, Unknown motor
Mass
28 kg wet, 28 kg dry
Launch date (UTC)
2024-11-25 (11 months ago)
Launch vehicle
ELECTRON
Launch site
Rocket Lab Launch Complex (RLLC)
Object type
Payload
Rocket body
Debris
Shape & HBR
Box + 2 Pan + 1 Ant, 1.0 m
Radar Cross Section
0.229 m², Medium (>0.1 m² and < 1m²)

Expand to show TLE details & history
Last TLE update: 10 hours ago

TLE from 10 hours ago
0 KINEIS-5E
1 62083U 24219C   25302.51781959  .00001242  00000-0  20420-3 0  9994
2 62083  97.9845 101.4554 0001394  69.8143 290.3214 14.72316346 49822
Epoch: 2025-10-29T12:25Z
TLE epoch observation values (Epoch: 2025-10-29T12:25:39.612Z)
Latitude
-0.00006°
Longitude
-123.04946°
Altitude
656.351 km
Speed
7.529 km/s
True Right ascension
06h 45m 49s
True Declination
0° 00' 00"
Sunlit
Object was in daylight at epoch
Visualization orbit readout
Latitude
Unknown
Longitude
Unknown
Altitude
Unknown
Speed
Unknown
Apparent Right ascension
Unknown
Apparent Declination
Unknown
Sunlit
N/A
Visualization observer readout
Local Sidereal Time
17:50:28
Azimuth
Unknown
Elevation
Unknown
Doppler factor
Unknown
Orbital elements
Apogee altitude
651.718 km
Perigee altitude
649.758 km
Semi-major axis
7,028.875 km
Eccentricity
0.00014
Inclination
97.9845°
RAAN
101.4554°
Arg. of periapsis
69.8143°
True anomaly
290.30642°
Mean anomaly
290.3214°
Eccentric anomaly
290.31391°
Mean motion
3.68311 °/min
Orbital period
97.74 mins
BSTAR
0.0002042
Loading maneuver chart data...
Computing Atmospheric mass density...
Loading historical data...
Loading historical data...
Loading historical data...
Loading historical data...
Loading historical data...
Loading historical data...
Loading historical data...

Documentation

Showing up to 5 results
|